Wichita, KS

3:51 PM CST on February 08, 2016 (GMT -0600)
Wichita Eisenhower National Airport

Weather History for KICT - October, 2012

Change the Weather History Date:

Tuesday, October 16, 2012

  Actual Average Record
Temperature  
Mean Temperature 68 °F 58 °F  
Max Temperature 82 °F 70 °F 89 °F (1995)
Min Temperature 54 °F 47 °F 27 °F (1966)
Degree Days  
Heating Degree Days 0 8  
Month to date heating degree days 101 92  
Since 1 July heating degree days 117 135  
Cooling Degree Days 3 1  
Month to date cooling degree days 10 29  
Year to date cooling degree days 2265 1678  
Growing Degree Days 18 (Base 50)    
Moisture  
Dew Point 51 °F    
Average Humidity 60    
Maximum Humidity 83    
Minimum Humidity 36    
Precipitation  
Precipitation 0.00 in 0.09 in 2.04 in (1968)
Month to date precipitation 0.32 1.56  
Year to date precipitation 24.12 28.79  
Snow  
Snow 0.00 in 0.00 in 0.00 in (2007)
Month to date snowfall 0.0 0.0  
Since 1 July snowfall 0.0 0.0  
Since 1 September snowfall 0.0 0.0  
Snow Depth 0.00 in    
Sea Level Pressure  
Sea Level Pressure 29.65 in    
Wind  
Wind Speed 12 mph (South)    
Max Wind Speed 20 mph    
Max Gust Speed 24 mph    
Visibility 10 miles    
Events      
T = Trace of Precipitation, MM = Missing Value Source: NWS Daily Summary

Daily Weather History Graph

Daily Weather History Graph

Search for Another Location

Airport or City:

Trip Planner

Search our weather history database for the weather conditions in past years. The results will help you decide how hot, cold, wet, or windy it might be!

Date:

Astronomy

Oct. 16, 2012 Rise Set
Actual Time 7:39 AM CDT 6:50 PM CDT
Civil Twilight 7:12 AM CDT 7:16 PM CDT
Nautical Twilight 6:42 AM CDT 7:47 PM CDT
Astronomical Twilight 6:12 AM CDT 8:17 PM CDT
Moon 9:01 AM CDT (10/16) 7:38 PM CDT (10/16)
Length of Visible Light 12h 03m
Length of Day
11h 10m
New Moon, 2% of the Moon is Illuminated
Oct 16
New Moon
Oct 21
First Quarter
Oct 29
Full
Nov 6
Last Quarter
Nov 13
New

Hourly Weather History & Observations

Time (CDT) Temp. Heat Index Dew Point Humidity Pressure Visibility Wind Dir Wind Speed Gust Speed Precip Events Conditions
12:53 AM 61.0 °F - 48.9 °F 64% 29.78 in 10.0 mi South 9.2 mph - N/A   Partly Cloudy
1:53 AM 59.0 °F - 48.9 °F 69% 29.77 in 10.0 mi South 10.4 mph - N/A   Partly Cloudy
2:53 AM 60.1 °F - 50.0 °F 69% 29.75 in 10.0 mi South 11.5 mph - N/A   Clear
3:53 AM 59.0 °F - 50.0 °F 72% 29.73 in 10.0 mi South 10.4 mph - N/A   Clear
4:53 AM 55.9 °F - 48.9 °F 77% 29.73 in 10.0 mi South 9.2 mph - N/A   Clear
5:53 AM 55.9 °F - 48.9 °F 77% 29.72 in 10.0 mi ESE 10.4 mph - N/A   Partly Cloudy
6:53 AM 55.4 °F - 48.2 °F 77% 29.76 in 10.0 mi South 8.1 mph - N/A   Clear
7:53 AM 54.0 °F - 48.0 °F 80% 29.74 in 10.0 mi South 8.1 mph - N/A   Scattered Clouds
8:53 AM 60.1 °F - 48.9 °F 67% 29.73 in 10.0 mi South 12.7 mph - N/A   Scattered Clouds
9:53 AM 66.0 °F - 48.9 °F 54% 29.73 in 10.0 mi SSW 13.8 mph - N/A   Mostly Cloudy
10:53 AM 70.0 °F - 48.9 °F 47% 29.72 in 10.0 mi SSW 15.0 mph 20.7 mph N/A   Mostly Cloudy
11:53 AM 73.9 °F - 48.9 °F 41% 29.70 in 10.0 mi SW 16.1 mph - N/A   Scattered Clouds
12:53 PM 77.0 °F - 50.0 °F 39% 29.68 in 10.0 mi SSW 10.4 mph 21.9 mph N/A   Scattered Clouds
1:53 PM 79.0 °F - 51.1 °F 38% 29.63 in 10.0 mi South 12.7 mph - N/A   Partly Cloudy
2:53 PM 80.1 °F - 51.1 °F 36% 29.58 in 10.0 mi South 16.1 mph - N/A   Clear
3:53 PM 81.0 °F - 52.0 °F 36% 29.55 in 10.0 mi SW 16.1 mph 21.9 mph N/A   Clear
4:53 PM 82.0 °F 81.2 °F 53.1 °F 37% 29.54 in 10.0 mi SSW 16.1 mph - N/A   Partly Cloudy
5:53 PM 80.1 °F 79.9 °F 53.1 °F 39% 29.53 in 10.0 mi SSW 13.8 mph - N/A   Partly Cloudy
6:53 PM 75.0 °F - 54.0 °F 48% 29.52 in 10.0 mi South 10.4 mph - N/A   Scattered Clouds
7:53 PM 72.0 °F - 55.0 °F 55% 29.52 in 10.0 mi South 11.5 mph - N/A   Scattered Clouds
8:53 PM 69.1 °F - 55.0 °F 61% 29.52 in 10.0 mi South 11.5 mph - N/A   Scattered Clouds
9:53 PM 70.0 °F - 55.0 °F 59% 29.51 in 10.0 mi South 12.7 mph - N/A   Scattered Clouds
10:53 PM 66.0 °F - 55.9 °F 70% 29.50 in 10.0 mi South 9.2 mph - N/A   Partly Cloudy
11:53 PM 66.0 °F - 55.9 °F 70% 29.48 in 10.0 mi SSE 13.8 mph - N/A   Scattered Clouds